Vorticity
1 10 2 6 4 32 14 11 11 10 15 4 14 3 6 9 6 -2 9 10 6 5 6 6 5 5 5 5 4 3 5 7 6 6 5 5 6 6 6 5 5 7 8 8
3 8 5 6 2 21 13 10 5 8 3 27 15 13 6 9 15 3 5 6 3 8 9 7 6 6 5 4 5 9 10 9 7 6 6 6 6 7 4 5 6 5 4 4
25 2 4 13 -0 20 17 14 3 -0 4 12 31 14 2 1 14 10 6 4 8 6 8 10 9 7 6 7 8 9 8 6 5 6 6 6 6 7 9 7 6 7 6 9
19 4 1 6 7 14 19 8 10 -1 6 8 8 14 12 0 8 8 14 12 8 12 12 14 15 13 12 13 13 11 10 9 7 6 6 6 6 6 8 8 7 8 8 7
10 1 4 25 0 34 15 9 8 5 5 7 2 5 35 1 4 10 10 9 10 10 12 10 10 11 11 10 8 8 8 7 7 7 7 8 8 8 8 8 9 9 11 12
8 10 3 25 16 1 24 14 12 5 7 4 4 3 20 10 1 9 8 4 5 7 8 8 10 9 5 5 6 6 6 7 7 8 8 8 9 9 9 8 7 9 10 11
7 13 12 6 13 5 -2 20 18 7 6 6 4 10 6 14 8 -1 4 9 3 -4 -2 4 5 4 5 6 7 7 7 7 8 9 9 9 7 4 8 12 13 11 9 9
8 9 15 9 -2 6 21 19 19 11 6 5 1 9 2 10 7 3 6 2 7 15 14 8 8 8 8 7 7 8 9 9 10 9 6 5 10 15 11 8 9 11 7 2
22 13 12 -23 9 -4 12 16 16 15 13 10 4 7 6 -0 9 8 6 10 9 5 7 8 7 8 8 7 8 10 10 9 7 5 11 14 10 8 11 11 8 7 6 7
24 12 5 -7 24 14 7 15 15 15 11 14 8 0 6 16 7 3 6 6 6 5 6 9 8 9 8 9 10 9 8 7 10 13 10 9 11 10 10 6 3 6 11 17
16 18 26 27 -4 -9 -5 5 19 13 14 11 13 14 4 10 9 11 6 10 10 9 11 12 11 12 11 11 10 9 10 12 10 9 9 10 8 8 2 4 9 13 3 0
13 8 16 14 18 26 32 4 3 12 11 15 5 11 7 10 11 4 3 9 13 12 12 11 11 9 9 10 10 10 11 10 10 9 9 9 12 4 12 10 7 15 24 16
12 18 2 5 5 4 21 21 7 13 16 25 16 17 16 17 17 15 14 11 12 11 11 12 12 12 10 10 11 11 10 9 9 12 8 10 8 11 7 11 15 9 13 17
-1 -0 9 14 16 7 2 1 2 4 6 4 6 14 22 6 21 11 13 14 10 9 10 10 10 9 10 10 11 10 9 8 8 8 8 11 1 5 -1 12 8 9 8 4
14 7 4 5 7 7 11 13 19 19 10 8 3 9 6 13 8 15 12 11 11 9 9 9 10 11 10 9 6 9 8 5 8 10 3 10 10 6 -3 6 6 14 1 5
19 10 6 7 7 5 5 12 7 -3 13 25 11 9 10 10 11 7 7 8 8 9 9 9 9 8 7 8 8 7 7 9 4 7 9 10 6 11 5 5 3 3 16 12
18 19 11 5 10 8 5 5 6 8 9 -4 9 10 9 15 9 8 10 9 9 9 10 10 10 10 10 10 12 14 16 7 6 5 13 16 15 2 5 10 -2 12 12 2
11 7 7 15 10 12 14 15 17 17 12 15 14 11 9 8 9 9 9 11 12 12 11 10 12 16 16 16 13 15 17 17 16 10 17 10 5 11 4 20 11 2 13 18
15 3 6 13 10 12 12 9 8 13 11 8 10 10 8 9 8 10 12 13 12 9 10 13 11 11 10 12 11 9 11 12 11 10 11 20 21 14 15 8 1 13 13 6
6 3 13 10 11 7 8 10 10 12 10 8 8 8 9 9 11 12 11 10 8 10 12 10 9 10 7 9 11 12 15 15 13 15 9 6 3 13 7 -8 13 9 6 8
8 11 11 12 10 8 10 8 10 8 9 12 10 11 12 11 10 11 9 8 9 9 10 9 9 6 7 7 5 7 9 13 14 13 16 12 15 12 11 14 9 7 7 7
10 13 8 12 11 10 9 11 6 10 11 10 11 11 11 12 12 9 9 9 8 8 8 9 6 5 6 6 5 5 7 9 11 10 16 13 12 14 12 8 8 9 9 9
9 12 11 8 9 9 7 10 6 7 9 11 11 10 11 11 10 10 11 8 8 7 10 8 9 7 6 7 6 6 7 7 7 13 11 8 10 11 10 10 9 9 8 12
8 6 7 9 10 7 8 7 6 6 7 6 9 13 11 8 2 25 7 7 10 11 11 11 11 11 10 10 8 6 8 8 9 10 12 10 12 12 9 9 8 7 8 11
15 10 8 5 5 6 4 5 3 3 4 6 9 12 13 12 2 15 9 9 9 7 9 10 12 12 10 8 11 10 7 8 11 12 13 12 10 5 6 6 7 8 5 4
11 12 13 12 12 10 8 8 9 8 8 10 8 6 13 7 11 12 10 8 6 6 4 8 12 13 10 8 9 9 8 3 9 13 15 10 7 3 2 4 5 5 8 8
Height
5631 5639 5652 5666 5674 5679 5684 5688 5696 5705 5710 5716 5725 5733 5739 5746 5754 5760 5764 5770 5776 5782 5785 5789 5794 5799 5802 5804 5805 5807 5809 5811 5811 5811 5812 5813 5814 5812 5812 5812 5811 5811 5810 5809
5626 5643 5653 5660 5666 5670 5673 5681 5693 5696 5703 5713 5719 5727 5733 5739 5749 5754 5758 5765 5770 5775 5778 5782 5789 5792 5793 5796 5798 5801 5802 5803 5804 5805 5805 5804 5807 5809 5805 5804 5803 5801 5799 5800
5629 5645 5651 5657 5662 5667 5673 5680 5688 5691 5702 5710 5713 5718 5727 5735 5742 5748 5754 5758 5762 5768 5772 5777 5781 5783 5786 5790 5791 5792 5794 5795 5797 5797 5798 5797 5795 5799 5800 5797 5794 5792 5790 5789
5629 5641 5649 5655 5659 5664 5668 5677 5682 5687 5700 5704 5707 5713 5721 5727 5735 5741 5747 5751 5756 5761 5766 5770 5773 5775 5778 5780 5782 5784 5787 5788 5789 5789 5789 5788 5788 5787 5788 5788 5786 5784 5782 5779
5632 5640 5646 5651 5657 5661 5666 5672 5678 5687 5693 5694 5702 5707 5714 5722 5729 5736 5741 5745 5749 5754 5758 5762 5765 5767 5770 5772 5774 5777 5778 5780 5780 5780 5781 5780 5779 5778 5777 5777 5777 5775 5773 5772
5632 5638 5644 5648 5653 5658 5663 5669 5677 5683 5687 5691 5699 5704 5707 5716 5724 5729 5735 5739 5743 5746 5750 5754 5757 5760 5763 5764 5766 5768 5770 5770 5771 5771 5771 5771 5770 5770 5769 5767 5766 5764 5762 5760
5630 5637 5643 5648 5653 5656 5660 5665 5673 5677 5681 5688 5694 5699 5704 5709 5717 5725 5729 5733 5736 5739 5743 5746 5750 5752 5755 5756 5757 5759 5760 5761 5761 5762 5762 5762 5761 5760 5759 5757 5756 5754 5752 5750
5630 5635 5640 5646 5650 5657 5659 5664 5670 5674 5679 5686 5689 5693 5698 5703 5712 5719 5723 5725 5729 5733 5737 5740 5742 5744 5746 5747 5748 5749 5750 5751 5752 5752 5753 5752 5751 5751 5749 5748 5746 5744 5742 5740
5628 5632 5639 5643 5648 5653 5656 5659 5666 5672 5676 5681 5685 5690 5695 5699 5707 5712 5716 5720 5724 5727 5729 5731 5733 5735 5737 5738 5739 5740 5741 5742 5743 5743 5743 5742 5742 5741 5740 5738 5736 5734 5731 5727
5629 5632 5637 5641 5648 5651 5654 5659 5663 5667 5672 5677 5681 5686 5691 5694 5702 5705 5709 5713 5716 5719 5721 5723 5725 5726 5728 5729 5730 5732 5733 5734 5734 5734 5734 5734 5733 5732 5730 5728 5726 5723 5720 5716
5631 5634 5637 5640 5645 5648 5652 5656 5661 5666 5670 5673 5676 5680 5685 5690 5694 5698 5702 5705 5708 5710 5712 5714 5716 5718 5719 5721 5723 5724 5724 5725 5725 5726 5725 5724 5724 5723 5721 5719 5716 5712 5707 5704
5632 5636 5638 5641 5644 5647 5650 5655 5659 5662 5667 5671 5672 5676 5680 5685 5688 5692 5695 5698 5700 5702 5704 5707 5709 5711 5712 5714 5715 5716 5717 5717 5717 5717 5717 5716 5715 5714 5712 5708 5705 5701 5698 5694
5633 5636 5638 5642 5646 5646 5650 5653 5657 5661 5664 5667 5669 5671 5674 5679 5682 5685 5689 5691 5693 5696 5698 5701 5703 5704 5706 5707 5708 5709 5709 5709 5709 5709 5708 5708 5707 5705 5702 5699 5696 5694 5689 5685
5634 5636 5638 5642 5643 5646 5648 5651 5655 5658 5661 5664 5665 5667 5671 5673 5676 5680 5683 5685 5688 5691 5693 5695 5696 5698 5699 5700 5701 5702 5702 5702 5702 5701 5701 5700 5699 5697 5695 5692 5689 5686 5681 5677
5631 5634 5637 5639 5641 5643 5646 5650 5653 5656 5658 5659 5659 5663 5665 5669 5673 5676 5678 5680 5683 5686 5688 5690 5691 5692 5693 5693 5694 5695 5695 5695 5695 5694 5693 5692 5691 5690 5687 5685 5682 5679 5675 5670
5627 5630 5632 5635 5638 5640 5643 5646 5649 5651 5653 5655 5657 5659 5663 5667 5670 5671 5674 5676 5679 5681 5683 5684 5684 5685 5686 5687 5687 5687 5687 5687 5686 5686 5685 5684 5683 5682 5679 5677 5675 5672 5668 5663
5625 5628 5630 5633 5634 5637 5641 5643 5645 5647 5649 5651 5654 5657 5660 5664 5665 5667 5670 5672 5674 5675 5677 5678 5678 5679 5680 5679 5679 5679 5678 5678 5678 5678 5677 5676 5675 5674 5672 5671 5668 5665 5661 5657
5623 5625 5627 5630 5631 5634 5637 5639 5641 5643 5645 5649 5651 5654 5657 5659 5661 5663 5665 5667 5668 5669 5671 5672 5672 5672 5673 5672 5671 5671 5671 5670 5671 5669 5669 5668 5668 5667 5665 5664 5661 5659 5655 5650
5620 5623 5625 5626 5629 5632 5634 5636 5638 5640 5643 5645 5647 5650 5652 5654 5656 5658 5660 5662 5663 5665 5666 5667 5667 5667 5667 5666 5666 5665 5665 5664 5663 5663 5663 5662 5661 5660 5658 5657 5655 5652 5649 5644
5618 5620 5622 5624 5625 5627 5632 5632 5634 5637 5639 5641 5643 5645 5648 5649 5652 5653 5655 5657 5658 5659 5661 5662 5662 5662 5661 5662 5662 5660 5659 5659 5658 5658 5658 5657 5656 5654 5652 5650 5648 5646 5643 5638
5615 5616 5618 5620 5622 5625 5628 5630 5632 5634 5640 5638 5639 5641 5643 5645 5647 5648 5650 5652 5653 5655 5656 5656 5656 5656 5657 5658 5656 5655 5654 5654 5653 5652 5651 5651 5649 5647 5645 5644 5642 5640 5637 5634
5612 5613 5615 5617 5620 5623 5625 5627 5630 5632 5633 5634 5636 5637 5638 5640 5642 5644 5646 5647 5648 5649 5650 5651 5652 5652 5653 5652 5651 5651 5650 5649 5648 5647 5646 5644 5643 5641 5640 5638 5637 5634 5631 5628
5609 5610 5612 5615 5617 5618 5621 5623 5625 5627 5629 5630 5632 5633 5634 5636 5638 5639 5641 5642 5643 5644 5645 5646 5646 5647 5648 5647 5647 5646 5646 5645 5643 5642 5640 5638 5637 5636 5634 5633 5631 5629 5626 5623
5604 5606 5609 5610 5612 5614 5616 5618 5620 5623 5625 5626 5628 5628 5630 5631 5633 5634 5635 5637 5638 5639 5640 5640 5641 5643 5643 5642 5642 5641 5641 5640 5638 5636 5634 5633 5632 5631 5630 5628 5626 5624 5621 5618
5600 5601 5603 5606 5607 5609 5612 5614 5616 5618 5619 5621 5622 5624 5625 5626 5628 5629 5630 5632 5633 5634 5634 5635 5636 5637 5638 5637 5637 5636 5635 5634 5632 5631 5629 5628 5627 5626 5625 5623 5621 5619 5616 5613
5594 5596 5598 5599 5602 5603 5607 5608 5609 5611 5613 5614 5616 5617 5618 5620 5621 5623 5624 5626 5628 5629 5629 5630 5631 5632 5632 5632 5631 5630 5629 5628 5627 5625 5624 5623 5622 5621 5619 5618 5616 5613 5611 5608